Погода в Углеродовском

Россия / Ростовская область     48°08′41″N   40°03′49″E
темп.,
°C
ветер,
м/с
пор.,
м/с
влажн.,
%
обл.,
%
осадки,
мм/ч
давл.,
гПа
погр.,
м
11 апреля, вс
вс1100:00+6с377180 0.0 1022163
03:00+6с51272100 0.0 1022451
06:00+5с51280100 0.1 1023570
09:00+6ссв71184100 0.1 1023733
12:00+7ссв61085100 0.0 1023683
15:00+8св5885100 0.0 1022639
18:00+8св5886100 0.0 1022562
21:00+8ссв379091 0.0 1022252
12 апреля, пн
пн1200:00+7с379599 0.0 1021144
03:00+7с3496100 0.0 102064
06:00+8св2293100 0.0 101919
09:00+13в5864100 0.0 1020352
12:00+17вюв8134697 0.0 10201024
15:00+13ююв5981100 0.6 1021384
18:00+14ююв2474100 0.0 1021152
21:00+12ссв117994 0.0 102210
13 апреля, вт
вт1300:00+12вюв5127191 0.0 1021321
03:00+11вюв5117487 0.0 1022350
06:00+9вюв238899 0.0 102261
09:00+14вюв476487 0.0 1022622
12:00+17юв575299 0.0 1021934
15:00+14ююв4769100 0.1 1022386
18:00+11ю4981100 0.6 1022339
21:00+11вюв3887100 2.1 1021300
14 апреля, ср
ср1400:00+11юв2491100 0.0 1020136
03:00+10ююв2394100 0.0 1020111
06:00+9юв119582 0.0 101910
09:00+14в3571100 0.0 1019517
12:00+16вюв354699 0.0 10181046
15:00+19вюв463372 0.0 10161778
18:00+17ююв464898 0.0 1016188
21:00+12зюз4878100 0.0 1016207
15 апреля, чт
чт1500:00+11з3681100 0.0 1015245
03:00+11юз2484100 0.1 1015182
06:00+10юз4685100 0.1 1015305
09:00+12юз566879 0.1 1015639
12:00+16ююз675240 0.0 10141691
15:00+17ююз6749100 0.3 10131986
18:00+11ююз71087100 0.9 1014649
21:00+11ю478861 2.5 1014417